Preview of NWS' New Version of Forecast
This preview is not operational and should not be used for support decisions.

Regional Weather Roundup (RWR)

Issued by National Weather Service (NWS)

                            
000
ASUS43 KDTX 180501
RWRMI 
MICHIGAN HOURLY REGIONAL WEATHER ROUNDUP
NATIONAL WEATHER SERVICE DETROIT/PONTIAC MI
1200 AM EST MON FEB 18 2019

NOTE: "FAIR" INDICATES FEW OR NO CLOUDS BELOW 12,000 FEET WITH NO
SIGNIFICANT WEATHER AND/OR OBSTRUCTION TO VISIBILITY.

MIZ047>049-052>055-059>063-066>070-074>076-081>083-180600-
SOUTHEAST LOWER MICHIGAN
  
CITY           SKY/WX    TMP DP  RH WIND       PRES   REMARKS
ADRIAN         FLURRIES  22  18  85 N9        29.88R WCI  12          
ALMA           LGT SNOW  21  17  84 N13       29.95R WCI   9          
ANN ARBOR      LGT SNOW  22  19  89 N7        29.86R FOG     WCI  13  
BAD AXE        CLOUDY    21  11  66 NE12G18   29.91F WCI   9          
CARO           LGT SNOW  21  17  82 NE10G17   29.92R WCI  10          
DETROIT CITY   LGT SNOW  23  19  85 N12       29.86R FOG     WCI  12  
DETROIT        LGT SNOW  24  18  77 N9        29.87R WCI  14          
FLINT          LGT SNOW  21  17  84 N9        29.90S FOG     WCI  11  
GROSSE ILE     CLOUDY    25  21  85 N9        29.85R WCI  15          
HILLSDALE      FLURRIES  22  18  85 N6        29.85R WCI  15          
HOWELL         LGT SNOW  21  18  89 N7        29.88R WCI  12          

CITY           SKY/WX    TMP DP  RH WIND       PRES   REMARKS
JACKSON        LGT SNOW  21  18  88 N8        29.87S FOG     WCI  11  
LAMBERTVILLE   CLOUDY    25  22  88 N3        29.87R                  
LANSING        LGT SNOW  21  18  88 N8        29.92R WCI  11          
LAPEER         LGT SNOW  21  17  84 NE6       29.89R WCI  14          
MASON          LGT SNOW  21  19  89 N6        29.89S WCI  14          
MONROE         CLOUDY    24  23  96 N7        29.86R WCI  16          
MT. CLEMENS    FLURRIES  22  22  99 N14         N/A  WCI   9          
PONTIAC        LGT SNOW  21  18  88 N8        29.85R FOG     WCI  11  
PORT HOPE        N/A     23  14  68 NE16      29.93F WCI  10          
PORT HURON     FLURRIES  21  18  86 N12G17    29.87F WCI   9          
TRI CITIES     LGT SNOW  20  16  84 N18       29.94S FOG     WCI   5  
MIDLAND        FLURRIES  21  15  78 N8        29.95S WCI  11          
TROY           FLURRIES  22  18  83 N10G16    29.88R WCI  12          
SAGINAW HB     LGT SNOW  23  19  86 N15       29.93S WCI  10          
$$
MIZ043>046-050>051-056>058-064>065-071>073-077>080-180600-
SOUTHWEST LOWER MICHIGAN
  
CITY           SKY/WX    TMP DP  RH WIND       PRES   REMARKS
BATTLE CREEK   LGT SNOW  21  18  88 N8        29.90R FOG     WCI  11  
BENTON HARBOR  CLOUDY    23  19  85 NE3       29.93R FOG              
BIG RAPIDS     FLURRIES  19  15  82 NE6       29.96R WCI  11          
COLDWATER      LGT SNOW  23  22  94 N6        29.89R WCI  16          
FREMONT        LGT SNOW  22  18  85 NE7       29.96S WCI  14          
HOLLAND        LGT SNOW  22  18  85 NE6       29.95R FOG     WCI  14  
GRAND RAPIDS   LGT SNOW  21  18  88 N7        29.94R FOG     WCI  12  
IONIA          LGT SNOW  21  18  86 N8        29.92S WCI  12          
KALAMAZOO      LGT SNOW  22  19  89 N5        29.91R FOG     WCI  16  
LUDINGTON      LGT SNOW  21  18  86 NE5       30.00R WCI  15          
MARSHALL       LGT SNOW  22  22 100 CALM      29.89R                  
MOUNT PLEASANT LGT SNOW  20  14  76 N10       29.96R WCI   9          
MUSKEGON       CLOUDY    22  16  78 NE8       29.97S WCI  12          
SOUTH HAVEN    CLOUDY    23  19  86 NE7       29.93R WCI  15          
$$
MIZ016>042-180600-
NORTHERN LOWER MICHIGAN
  
CITY           SKY/WX    TMP DP  RH WIND       PRES   REMARKS
ALPENA         CLOUDY    18   9  68 NE10      30.03S WCI   6          
BEAVER ISLAND  FAIR       8   5  89 CALM      30.08S                  
BELLAIRE       MOCLDY    17  10  71 N3        30.06R                  
CADILLAC       CLOUDY    16   9  74 NE7       29.95R WCI   6          
CHARLEVOIX     FAIR      16   7  67 NE6       30.09F WCI   7          
FRANKFORT      CLOUDY    19  11  70 NE7       30.04S WCI  10          
GAYLORD        FAIR      11   7  84 N5        29.98F WCI   3          
GRAYLING       FAIR      14  10  82 NE9       29.97F WCI   2          
HARBOR SPRINGS FAIR      15   5  62 N6        30.06S WCI   7          
HOUGHTON LAKE  CLOUDY    15   9  76 N10       29.96S WCI   2          
MANISTEE       CLOUDY    19  12  74 NE10      30.01R WCI   7          
OSCODA         FLURRIES  20  14  76 NE13      29.98F WCI   8          
PELLSTON       FAIR       4   1  88 N3        30.08S                  
ROGERS CITY    CLOUDY    19  11  70 NE12      30.07S WCI   6          
TRAVERSE CITY  CLOUDY    19  11  70 NE10      30.03S WCI   7          
$$
MIZ007>008-015-180600-
EASTERN UPPER MICHIGAN
  
CITY           SKY/WX    TMP DP  RH WIND       PRES   REMARKS
KINROSS        CLOUDY     6   4  91 NE5       30.09R WCI  -3          
MACKINAC ISLAN FAIR      10   6  81 N6        30.08S WCI   1          
NEWBERRY       FAIR      11   9  92 MISG      30.09R                  
S. S. MARIE    FAIR      14   5  67 NE3       30.10R                  
MUNISING         N/A     20  12  71 NE9       30.11R WCI   9          
$$
MIZ004>006-011>014-085-180600-
CENTRAL UPPER MICHIGAN
  
CITY           SKY/WX    TMP DP  RH WIND       PRES   REMARKS
MANISTIQUE     FAIR      11   6  80 N5        30.09S WCI   3          
ESCANABA       CLOUDY    15  11  83 CALM      30.12S                  
MENOMINEE      MOCLDY    16  12  84 N6        30.11S WCI   7          
SAWYER-GWINN   FLURRIES  17  13  84 N13G18    30.08S WCI   4          
$$
MIZ001>003-009>011-084-180600-
WESTERN UPPER MICHIGAN
  
CITY           SKY/WX    TMP DP  RH WIND       PRES   REMARKS
IRON MOUNTAIN  CLOUDY    14  10  84 N10       30.09R WCI   1          
HOUGHTON       FAIR       8   2  76 N8        30.16R WCI  -4          
COPPER HARBOR    N/A     13   5  70 E15       30.20R WCI  -3          
IRONWOOD       FLURRIES   9   5  84 N5        30.18R WCI   1          
$$

ABBREVIATIONS USED IN REMARKS
   TC - TEMPERATURE IN CELSIUS
  WCI - WIND CHILL INDEX
   HX - HEAT INDEX
  VSB - VISIBILITY